Regional Weather Roundup
Issued by NWS

Home | Current Version | Previous Version | Graphics & Text | Print | Product List | Glossary On
Versions: 1 2 3 4 5 6 7 8 9 10 11 12 13 14 15 16 17 18 19 20 21 22 23 24 25 26 27 28 29 30 31 32 33 34 35 36 37 38 39 40 41 42 43 44 45 46 47 48 49 50
000
ASUS43 KOAX 301610
RWRNE

WEATHER ROUNDUP FOR NEBRASKA
NATIONAL WEATHER SERVICE OMAHA NE
1100 AM CDT TUE JUN 30 2015

NOTES: SATELLITE DATA IS BEING USED TO AUGMENT CLOUD COVER ABOVE
       12000 FEET.
       "FAIR" INDICATES FEW OR NO CLOUDS BELOW 12,000 FEET WITH NO
       SIGNIFICANT WEATHER AND/OR OBSTRUCTIONS TO VISIBILITY.

  * THESE STATIONS DO NOT REPORT WEATHER SUCH AS RAIN...SNOW OR FOG.

NEZ001>004-019>022-054>056-301700-
NEBRASKA PANHANDLE

CITY           SKY/WX    TMP DP  RH WIND       PRES   REMARKS
SCOTTSBLUFF    MOSUNNY   81  58  45 VRB5      30.03F
ALLIANCE       SUNNY     81  61  50 SW5       30.01F
CHADRON        MOSUNNY   80  60  50 W6        29.96F
KIMBALL          N/A    N/A N/A N/A MISG        N/A
SIDNEY         MOSUNNY   84  60  44 W3        30.08F
$$

NEZ057>060-069>072-079>082-301700-
SOUTHWEST NEBRASKA

CITY           SKY/WX    TMP DP  RH WIND       PRES   REMARKS
NORTH PLATTE   MOSUNNY   84  66  54 SW5       29.97F
IMPERIAL       SUNNY     84  60  44 SW5       30.02F
LEXINGTON      MOSUNNY   84  63  49 S7        29.97F
MCCOOK         SUNNY     84  60  44 SW9       29.99F
OGALLALA       MOSUNNY   81  64  55 SW5       30.00F
$$

NEZ005>010-023>029-035>040-094-301700-
NORTH CENTRAL NEBRASKA

CITY           SKY/WX    TMP DP  RH WIND       PRES   REMARKS
VALENTINE      PTSUNNY   82  62  50 SE12      29.93F
AINSWORTH      PTSUNNY   79  61  54 SE10      29.95F
BROKEN BOW     PTSUNNY   84  65  52 SW7       29.95F
O`NEILL        PTSUNNY   74  64  70 E7        29.97S
ORD            MOSUNNY   81  61  50 E6        29.94F
THEDFORD       PTSUNNY   88  60  39 W7        29.96F
$$

NEZ041-046>049-061>064-073>077-083>087-301700-
SOUTH CENTRAL NEBRASKA

CITY           SKY/WX    TMP DP  RH WIND       PRES   REMARKS
GRAND ISLAND   MOSUNNY   86  61  42 SW10      29.95F
AURORA         MOSUNNY   81  66  61 E10       29.96S
HASTINGS       SUNNY     86  63  45 S8        29.95F
HEBRON         SUNNY     87  59  38 SW8       29.95S
HOLDREGE       MOSUNNY   83  62  48 SW9       29.97F
KEARNEY *      MOSUNNY   84  63  48 S13       29.95F
YORK           PTSUNNY   79  64  61 E5        29.96F
$$

NEZ011>018-030>034-042>045-301700-
NORTHEAST NEBRASKA

CITY           SKY/WX    TMP DP  RH WIND       PRES   REMARKS
NORFOLK        CLOUDY    76  66  71 NE3       29.96R
ALBION         PTSUNNY   79  62  56 SE9       29.96S
BLAIR          CLOUDY    74  63  66 CALM      29.94S
COLUMBUS *     CLOUDY   N/A N/A N/A MISG        N/A
FREMONT        CLOUDY    78  63  60 W3        29.94F
TEKAMAH        CLOUDY    75  65  70 E3        29.92F HAZE
WAYNE          RAIN      69  67  92 N6        30.00R
$$

NEZ050>053-065>068-078-088>093-301700-
SOUTHEAST NEBRASKA

CITY           SKY/WX    TMP DP  RH WIND       PRES   REMARKS
LINCOLN        PTSUNNY   79  65  62 CALM      29.95F HAZE
OMAHA EPPLEY   CLOUDY    76  64  66 CALM      29.93F HAZE
BEATRICE       MOSUNNY   81  66  60 CALM      29.96S
FALLS CITY     MOSUNNY   81  67  62 NW3       29.94F
NEBRASKA CITY  CLOUDY    75  63  64 CALM      29.95F
PLATTSMOUTH    CLOUDY    76  63  64 NE3       29.94F
$$

NEZ044-045-051>053-067-301700-
OMAHA AREA

CITY           SKY/WX    TMP DP  RH WIND       PRES   REMARKS
OMAHA EPPLEY   CLOUDY    76  64  66 CALM      29.93F HAZE
BLAIR          CLOUDY    74  63  66 CALM      29.94S
FREMONT        CLOUDY    78  63  60 W3        29.94F
MILLARD        CLOUDY    77  65  66 CALM      29.93S
OFFUTT AFB     CLOUDY    76  65  69 CALM      29.92F
PLATTSMOUTH    CLOUDY    76  63  64 NE3       29.94F
WAHOO          FAIR      77  66  68 CALM      29.94S
$$


USA.gov is the U.S. government's official web portal to all federal, state and local government web resources and services.